STARLINK-4360 (53482 NORAD) Tracking and Keplerian Element Data

This shows tracking and keplerian element data for the satellite.

Feedback or suggestion? Click here.




ElementValue
Catalog53482
NameSTARLINK-4360
Epoch Orbit1550
Epoch Day325.16218598
Epoch Year2022
RAAN84.2027
Inclination97.6582
Eccentricity6.24E-05
Argument of Perigee341.0863
Mean Anonmoly19.0338
Mean Motion15.01256701
Decay Rate-5.21E-06
L11 53482U 22099T 22325.16218598 -.00000521 00000+0 -35980-4 0 9996
L22 53482 97.6582 84.2027 0000624 341.0863 19.0338 15.01256701 15504



Live tracking and technical data element details for STARLINK-4360 (NORAD 53482). STARLINK-4360 can be tracked NOW for your location showing map with azimuth and elevation plus other details from your city location.







IsCatalogInMostPopularTable: catalog: 53482, numindb: 3
Update: records affected: 1



GetName: 53482 STARLINK-4360

Hit Count: updated at: Thu, 08 Dec 2022 08:47:08 GMT